Weather observations for the past three days for
Kinana / Bob Baker Me
Imperial (Metric)
Date Time (akdt) Wind (mph) Vis. (mi.) Weather Sky Cond. Temperature (ºF) Relative Humidity Wind Chill (°F) Heat Index (°F) Pressure Precipitation (in)
Air Dwpt 6 hour altimeter (in) sea level (mb) 1 hr 3 hr 6 hr
Max. Min.
13 05:56 E 12 10.00 Overcast BKN060 OVC070 52 50 93% 29.55 1000.7
13 04:56 E 10 10.00 Overcast SCT013 BKN026 OVC046 52 50 93% 29.55 1000.9 0.01
13 03:56 E 9 10.00 Light Rain SCT013 BKN055 OVC075 53.1 51.1 57.9 53.1 93% 29.55 1000.8 0.01 0.19
13 02:56 E 9 10.00 Light Rain SCT055 BKN070 OVC085 53.1 51.1 93% 29.56 1001.1 0.02
13 01:56 E 9 10.00 Light Rain OVC075 54 52 93% 29.56 1001.2 0.01
13 00:56 E 10 G 17 10.00 Light Rain SCT060 BKN070 OVC090 55 52 90% 29.56 1001.3 0.15
12 23:56 NE 6 10.00 Mostly Cloudy BKN095 BKN110 55 54 96% 29.56 1000.9
12 22:56 NW 6 7.00 Light Rain SCT019 BKN050 OVC070 55 54 96% 29.56 1001.0 0.15
12 21:56 NW 5 10.00 Mostly Cloudy FEW044 BKN055 57.9 54 69.1 57.9 87% 29.57 1001.5 0.05
12 20:56 W 3 10.00 Partly Cloudy SCT075 57.9 54 87% 29.59 1002.1
12 19:56 SE 6 10.00 Overcast SCT050 OVC065 57.9 52 81% 29.61 1002.7 0.05
12 18:56 E 13 10.00 Mostly Cloudy SCT080 BKN100 68 48.9 51% 29.6 1002.2
12 17:56 NE 10 10.00 A Few Clouds FEW055 66.9 51.1 57% 29.62 1003.0
12 16:56 E 12 10.00 Partly Cloudy FEW046 SCT095 68 52 57% 29.65 1004.1
12 15:56 E 12 G 17 10.00 Mostly Cloudy FEW037 SCT080 BKN100 68 51.1 69.1 57.9 55% 29.68 1005.0
12 14:56 E 9 10.00 Mostly Cloudy SCT047 BKN060 BKN110 66 52 61% 29.71 1006.1
12 13:56 E 10 10.00 A Few Clouds FEW036 66 50 56% 29.73 1006.9
12 12:56 E 8 10.00 Mostly Cloudy FEW027 BKN035 BKN075 64 52 65% 29.76 1007.8
12 11:56 E 10 10.00 Partly Cloudy FEW023 SCT085 61 54 78% 29.78 1008.5
12 10:56 E 9 10.00 Overcast OVC065 59 54 83% 29.79 1009.0
12 09:56 E 9 10.00 Overcast SCT075 OVC090 59 53.1 59 55 81% 29.8 1009.1
12 08:56 E 10 10.00 Mostly Cloudy BKN050 BKN085 57.9 54 87% 29.81 1009.5
12 07:56 E 6 10.00 Fair CLR 57.9 54 87% 29.82 1009.7
12 06:56 E 5 10.00 Mostly Cloudy SCT050 BKN075 55 53.1 93% 29.82 1010.0
12 05:56 E 5 10.00 Overcast OVC060 57 53.1 87% 29.83 1010.2
12 04:56 E 3 10.00 Overcast OVC060 57 53.1 87% 29.84 1010.5
12 03:56 Calm 10.00 Overcast OVC065 57 53.1 63 55.9 87% 29.85 1010.7
12 02:56 E 3 10.00 Overcast OVC060 57 55 93% 29.85 1010.9
12 01:56 Calm 10.00 Overcast OVC070 57.9 54 87% 29.86 1011.0
12 00:56 Calm 10.00 Overcast OVC070 59 52 78% 29.86 1011.1
11 23:56 NE 3 10.00 Partly Cloudy FEW080 SCT095 61 48.9 65% 29.86 1011.2
11 22:56 E 5 10.00 Mostly Cloudy BKN060 61 50 67% 29.86 1011.3
11 21:56 Calm 10.00 Mostly Cloudy BKN070 63 48.9 70 63 60% 29.86 1011.3
11 20:56 SE 3 10.00 Mostly Cloudy FEW055 BKN075 63 48.9 60% 29.86 1011.4
11 19:56 Vrbl 3 10.00 Overcast OVC070 64.9 46 51% 29.86 1011.3
11 18:56 Calm 10.00 Overcast OVC070 66 48 52% 29.87 1011.5
11 17:56 S 5 10.00 Partly Cloudy SCT075 68 45 44% 29.86 1011.4
11 16:56 S 7 10.00 Fair CLR 69.1 45 42% 29.86 1011.3
11 15:56 SW 10 10.00 Partly Cloudy SCT060 69.1 45 70 61 42% 29.87 1011.5
11 14:56 S 8 10.00 Partly Cloudy FEW055 SCT075 69.1 45 42% 29.87 1011.5
11 13:56 S 8 10.00 Fair CLR 68 44.1 42% 29.87 1011.6
11 12:56 SE 6 10.00 Fair CLR 66.9 46 47% 29.87 1011.5
11 11:56 E 7 10.00 Fair CLR 66 46.9 50% 29.87 1011.4
11 10:56 SE 3 10.00 Fair CLR 62.1 51.1 67% 29.86 1011.5
11 09:56 SE 7 10.00 Fair CLR 61 52 61 54 72% 29.86 1011.4
11 08:56 E 7 10.00 Fair CLR 59 53.1 81% 29.86 1011.1
11 07:56 SE 7 10.00 Fair CLR 57.9 53.1 84% 29.85 1010.8
11 06:56 Calm 10.00 Mostly Cloudy BKN110 55 52 90% 29.84 1010.4
11 05:56 SE 6 10.00 A Few Clouds FEW120 54 52 93% 29.82 1010.0
11 04:56 SE 3 10.00 Overcast OVC085 55 52 90% 29.81 1009.6
11 03:56 Calm 10.00 Overcast OVC090 55.9 53.1 61 55.9 90% 29.8 1009.0
11 02:56 SE 3 10.00 Overcast OVC080 57 53.1 87% 29.78 1008.6
11 01:56 E 7 10.00 Overcast OVC080 57.9 53.1 84% 29.77 1008.2
11 00:56 Calm 10.00 Overcast BKN060 BKN070 OVC090 59 53.1 81% 29.76 1007.9
10 23:56 E 3 10.00 Mostly Cloudy BKN080 BKN110 59 52 78% 29.75 1007.5
10 22:56 E 6 10.00 Overcast OVC065 60.1 51.1 72% 29.75 1007.3
10 21:56 E 5 10.00 Overcast OVC070 60.1 50 62.1 57.9 70% 29.74 1007.0
10 20:56 SE 8 10.00 Partly Cloudy SCT045 SCT055 61 48 63% 29.73 1006.8
10 19:56 SE 5 10.00 Overcast SCT050 SCT060 OVC095 61 48.9 65% 29.73 1006.7
10 18:56 E 9 10.00 Overcast OVC044 61 48.9 65% 29.72 1006.6
10 17:56 E 6 10.00 Overcast OVC040 60.1 48.9 67% 29.71 1006.3
10 16:56 SE 8 G 17 10.00 Overcast FEW026 BKN034 OVC042 60.1 50 70% 29.71 1006.4
10 15:56 SE 16 G 22 10.00 Overcast BKN023 OVC038 57.9 50 57.9 53.1 75% 29.7 1006.0 0.05
10 14:56 E 12 G 18 10.00 Overcast BKN021 OVC027 57 51.1 81% 29.7 1005.7
10 13:56 E 14 G 22 10.00 Overcast BKN016 OVC021 57 51.1 81% 29.68 1005.3
10 12:56 E 13 G 16 9.00 Overcast BKN018 OVC023 55.9 52 87% 29.67 1005.0 0.05
10 11:56 E 12 G 18 10.00 Overcast FEW011 BKN019 OVC028 54 52 93% 29.66 1004.5
10 10:56 E 8 10.00 Overcast BKN016 OVC023 54 52 93% 29.65 1004.2 0.05
10 09:56 E 8 9.00 Light Rain BKN003 BKN008 OVC019 53.1 52 53.1 45 96% 29.63 1003.4 0.03 0.05
10 08:56 E 8 6.00 Light Rain Fog/Mist BKN003 OVC008 53.1 52 96% 29.61 1002.9 0.01
10 07:56 E 7 7.00 Overcast OVC005 52 51.1 97% 29.6 1002.5
10 06:56 N 5 8.00 Overcast OVC007 46.9 46.9 100% 45 29.6 1002.3 0.01
Date Time (akdt) Wind (mph) Vis. (mi.) Weather Sky Cond. Air Dwpt Max. Min. Relative Humidity Wind Chill (°F) Heat Index (°F) altimeter (in) sea level (mb) 1 hr 3 hr 6 hr
6 hour
Temperature (ºF) Pressure Precipitation (in)